Weather History for LTCF - June, 2013

Change the Weather History Date:

Saturday, June 22, 2013

  Actual Average Record
Temperature  
Mean Temperature 49 °F -  
Max Temperature 66 °F 75 °F - ()
Min Temperature 32 °F 48 °F - ()
Degree Days  
Heating Degree Days 16    
Moisture  
Dew Point 37 °F    
Average Humidity 60    
Maximum Humidity 100    
Minimum Humidity 25    
Precipitation  
Precipitation 0.00 in 0.07 in - ()
Sea Level Pressure  
Sea Level Pressure 30.13 in    
Wind  
Wind Speed 4 mph ()    
Max Wind Speed 13 mph    
Max Gust Speed -    
Visibility 6.1 miles    
Events      
T = Trace of Precipitation, MM = Missing Value Source: Averaged Metar Reports

Daily Weather History Graph

Daily Weather History Graph

Search for Another Location

Airport or City:

Trip Planner

Search our weather history database for the weather conditions in past years. The results will help you decide how hot, cold, wet, or windy it might be!

Date:

Astronomy

Jun. 22, 2013 Rise Set
Actual Time 4:37 AM EEST 7:41 PM EEST
Civil Twilight 4:04 AM EEST 8:15 PM EEST
Nautical Twilight 3:21 AM EEST 8:57 PM EEST
Astronomical Twilight 2:31 AM EEST 9:47 PM EEST
Moon 6:33 PM EEST (6/22) 3:28 AM EEST (6/22)
Length of Visible Light 16h 11m
Length of Day
15h 04m
Waxing Gibbous, 98% of the Moon is Illuminated
Jun 22
Waxing Gibbous
Jun 23
Full
Jun 30
Last Quarter
Jul 8
New
Jul 16
First Quarter

Hourly Weather History & Observations

Time (EEST) Temp. Windchill Dew Point Humidity Pressure Visibility Wind Dir Wind Speed Gust Speed Precip Events Conditions
12:50 AM 39.2 °F 31.6 °F 33.8 °F 81% 30.15 in - East 12.7 mph - N/A   Clear
1:50 AM 37.4 °F 30.8 °F 32.0 °F 81% 30.15 in - East 9.2 mph - N/A   Clear
3:00 AM 38 °F - 34 °F 78%  in 6 mi Calm Calm - -  
3:50 AM 33.8 °F 30.8 °F 32.0 °F 93% 30.15 in - North 3.5 mph - N/A   Clear
4:50 AM 33.8 °F - 33.8 °F 100% 30.15 in - SE 2.3 mph - N/A   Clear
5:50 AM 35.6 °F 31.7 °F 33.8 °F 93% 30.15 in - NW 4.6 mph - N/A   Clear
6:50 AM 41.0 °F - 37.4 °F 87% 30.15 in - Calm Calm - N/A   Clear
7:50 AM 48.2 °F - 35.6 °F 62% 30.15 in - Calm Calm - N/A   Clear
8:50 AM 51.8 °F - 32.0 °F 47% 30.15 in - Variable 2.3 mph - N/A   Clear
9:00 AM 53 °F - 32 °F 33%  in 6 mi NE 2.3 mph - -  
9:50 AM 55.4 °F - 33.8 °F 44% 30.15 in - NE 3.5 mph - N/A   Clear
10:50 AM 59.0 °F - 33.8 °F 39% 30.15 in 6.2 mi Variable 3.5 mph - N/A   Partly Cloudy
11:50 AM 60.8 °F - 39.2 °F 45% 30.12 in 6.2 mi Variable 3.5 mph - N/A   Partly Cloudy
12:50 PM 60.8 °F - 37.4 °F 42% 30.12 in 6.2 mi Variable 4.6 mph - N/A   Partly Cloudy
1:50 PM 62.6 °F - 39.2 °F 42% 30.12 in 6.2 mi Variable 4.6 mph - N/A   Partly Cloudy
2:50 PM 64.4 °F - 37.4 °F 37% 30.12 in 6.2 mi East 4.6 mph - N/A   Partly Cloudy
3:00 PM 64 °F - 37 °F 25%  in 6 mi East 4.6 mph - -   Scattered Clouds
3:50 PM 64.4 °F - 35.6 °F 34% 30.09 in 6.2 mi East 3.5 mph - N/A   Partly Cloudy
4:50 PM 64.4 °F - 35.6 °F 34% 30.09 in 6.2 mi NNE 3.5 mph - N/A   Partly Cloudy
5:50 PM 64.4 °F - 39.2 °F 40% 30.09 in 6.2 mi NE 4.6 mph - N/A   Partly Cloudy
6:50 PM 60.8 °F - 41.0 °F 48% 30.09 in 6.2 mi NE 5.8 mph - N/A   Partly Cloudy
7:50 PM 57.2 °F - 39.2 °F 51% 30.09 in - NE 6.9 mph - N/A   Clear
8:50 PM 51.8 °F - 42.8 °F 71% 30.12 in - SE 4.6 mph - N/A   Clear
9:00 PM 52 °F - 43 °F 63%  in 6 mi SE 4.6 mph - -  
9:50 PM 50.0 °F - 42.8 °F 76% 30.12 in - NE 4.6 mph - N/A   Clear
10:50 PM 46.4 °F 44.3 °F 41.0 °F 81% 30.12 in - East 4.6 mph - N/A   Clear
11:50 PM 44.6 °F 43.1 °F 39.2 °F 81% 30.12 in - East 3.5 mph - N/A   Clear